Location: Lobos
(35.3000°S, 59.0940°W)
Time: 01:05:02
(UTC-03:00)

DIWATA 2B (PO-101) - Visible Passes

Search period start: 26 November 2020 00:00
Search period end: 06 December 2020 00:00
Orbit: 585 x 600 km, 97.9° (Epoch: 25 November)

Date Brightness Start Highest point End Pass type
(mag) Time Alt. Az. Time Alt. Az. Time Alt. Az.
26 Nov ? 01:46:35 10° ESE 01:47:44 13° ESE 01:47:44 13° ESE visible
26 Nov ? 03:20:32 10° S 03:24:20 39° WSW 03:24:20 39° WSW visible
27 Nov ? 01:54:50 10° SE 01:56:42 16° ESE 01:56:42 16° ESE visible
27 Nov ? 03:29:32 10° S 03:33:16 31° WSW 03:33:18 31° WSW visible
28 Nov ? 02:03:15 10° SE 02:05:40 21° ESE 02:05:40 21° ESE visible
28 Nov ? 03:38:36 10° SSW 03:42:02 25° WSW 03:42:16 24° WSW visible
29 Nov ? 02:11:48 10° SE 02:14:38 26° ESE 02:14:38 26° ESE visible
29 Nov ? 03:47:43 10° SSW 03:50:47 20° WSW 03:51:14 19° WSW visible
30 Nov ? 02:20:26 10° SSE 02:23:36 33° ESE 02:23:36 33° ESE visible
30 Nov ? 03:56:58 10° SSW 03:59:32 16° WSW 04:00:12 15° WSW visible
01 Dec ? 02:29:07 10° SSE 02:32:33 42° ESE 02:32:33 42° ESE visible
01 Dec ? 04:06:26 10° SW 04:08:16 13° WSW 04:09:09 12° W visible
02 Dec ? 02:37:51 10° SSE 02:41:31 55° ESE 02:41:31 55° ESE visible
03 Dec ? 02:46:38 10° SSE 02:50:28 69° SE 02:50:28 69° SE visible
04 Dec ? 02:55:28 10° S 02:59:25 76° SSW 02:59:25 76° SSW visible
05 Dec ? 03:04:20 10° S 03:08:22 63° WSW 03:08:22 63° WSW visible
